TimeMST,TemperatureF,Dew PointF,Humidity,Sea Level PressureIn,VisibilityMPH,Wind Direction,Wind SpeedMPH,Gust SpeedMPH,PrecipitationIn,Events,Conditions,WindDirDegrees,DateUTC
12:53 AM,24.1,19.9,84,30.02,10.0,Calm,Calm,-,N/A,,Overcast,0,2013-12-15 07:53:00
1:53 AM,21.9,18.0,85,30.01,10.0,ENE,6.9,-,N/A,,Mostly Cloudy,60,2013-12-15 08:53:00
2:53 AM,21.0,17.1,85,30.00,10.0,Calm,Calm,-,N/A,,Overcast,0,2013-12-15 09:53:00
3:53 AM,19.9,17.1,89,29.99,10.0,ESE,4.6,-,N/A,,Overcast,110,2013-12-15 10:53:00
4:53 AM,21.0,17.1,85,29.98,10.0,Calm,Calm,-,N/A,,Overcast,0,2013-12-15 11:53:00
5:53 AM,18.0,15.1,88,29.96,10.0,Calm,Calm,-,N/A,,Mostly Cloudy,0,2013-12-15 12:53:00
6:53 AM,18.0,14.0,84,29.94,10.0,ESE,3.5,-,N/A,,Mostly Cloudy,120,2013-12-15 13:53:00
7:53 AM,16.0,12.9,88,29.95,9.0,SSE,4.6,-,N/A,,Clear,160,2013-12-15 14:53:00
8:53 AM,19.0,15.1,85,29.95,10.0,Calm,Calm,-,N/A,,Scattered Clouds,0,2013-12-15 15:53:00
9:53 AM,33.1,26.1,75,29.91,10.0,West,10.4,-,N/A,,Overcast,270,2013-12-15 16:53:00
10:53 AM,37.0,28.9,73,29.88,10.0,West,13.8,-,N/A,,Overcast,280,2013-12-15 17:53:00
11:53 AM,39.0,28.9,67,29.86,10.0,WNW,12.7,-,N/A,,Overcast,290,2013-12-15 18:53:00
12:53 PM,39.9,28.9,65,29.86,10.0,West,10.4,-,N/A,,Clear,280,2013-12-15 19:53:00
1:53 PM,39.9,28.9,65,29.87,10.0,WNW,10.4,-,N/A,,Clear,290,2013-12-15 20:53:00
2:53 PM,37.9,28.9,70,29.88,10.0,West,11.5,-,N/A,,Clear,280,2013-12-15 21:53:00
3:53 PM,36.0,28.9,76,29.89,10.0,WNW,9.2,-,N/A,,Clear,290,2013-12-15 22:53:00
4:53 PM,34.0,28.0,79,29.89,10.0,West,8.1,-,N/A,,Clear,280,2013-12-15 23:53:00
5:53 PM,35.1,28.0,76,29.90,10.0,West,11.5,-,N/A,,Clear,270,2013-12-16 00:53:00
6:53 PM,35.1,28.0,76,29.90,10.0,WNW,9.2,-,N/A,,Clear,290,2013-12-16 01:53:00
7:53 PM,36.0,28.0,73,29.89,10.0,West,10.4,-,N/A,,Clear,280,2013-12-16 02:53:00
8:53 PM,35.1,27.0,72,29.89,10.0,West,15.0,-,N/A,,Clear,270,2013-12-16 03:53:00
9:53 PM,30.9,25.0,79,29.88,10.0,West,6.9,-,N/A,,Clear,260,2013-12-16 04:53:00
10:53 PM,28.9,23.0,78,29.88,10.0,WNW,4.6,-,N/A,,Mostly Cloudy,290,2013-12-16 05:53:00
11:53 PM,33.1,25.0,72,29.87,10.0,Calm,Calm,-,N/A,,Overcast,0,2013-12-16 06:53:00